Multibeam Report for USF2002Fla


Ship Name: Bellows
Chief Scientist:
Source Organization: University of South Florida (USF)
Start Date: 2002-04-17
End Date: 2002-07-14


View ISO Metadata

Visit the full NCEI Bathymetry Viewer


Multibeam Bathymetry

Cruise Details

Project: USF2002Fla
Instrument: Simrad EM3000

Data Quality

Number of Files: 1077
Number of Records: 3399821
BATHYMETRY DATA Quantity Percentage
Number of Beams 431678842 100%
Number of Good Beams 385541458 89.31%
Number of Zero Beams 46137384 10.69%
Number of Flagged Beams 0 0%
AMPLITUDE DATA Quantity Percentage
Number of Beams 431678842 100%
Number of Good Beams 385541458 89.31%
Number of Zero Beams 46137384 10.69%
Number of Flagged Beams 0 0%
SIDESCAN DATA Quantity Percentage
Number of Pixels 3480623104 100%
Number of Good Pixels 1072198123 30.8%
Number of Zero Pixels 0 0%
Number of Flagged Pixels 2408424981 69.2%

Navigation Totals

Total Time: 136.4624 hours
Total Track Length: 2245.7217 km
Average Speed: 16.457 km/hr (8.8861 knots)

Cruise Bounds

Northern Extent: 30.163916
Southern Extent: 24.370876
Western Extent: -85.83112
Eastern Extent: -81.81179

Limits

Minimum Sonar Depth -5.73 Maximum Sonar Depth 6.13
Minimum Altitude -1.09 Maximum Altitude 196.73
Minimum Depth 0.05 Maximum Depth 199.77
Minimum Amplitude -64 Maximum Amplitude 13.5
Minimum Sidescan -64 Maximum Sidescan 10

File Information

Full Resolution Bathymetry as collected (raw): 1076

Files File Size Description
0001_20020417_141804_raw.mb56.gz 6.20MB Simrad multibeam vendor format
0001_20020417_171033_raw.mb56.gz 75.15MB Simrad multibeam vendor format
0001_20020417_195906_raw.mb56.gz 14.91MB Simrad multibeam vendor format
0001_20020418_023211_raw.mb56.gz 1.05MB Simrad multibeam vendor format
0001_20020418_215236_raw.mb56.gz 6.47MB Simrad multibeam vendor format
0001_20020418_234440_raw.mb56.gz 1.29MB Simrad multibeam vendor format
0001_20020419_020750_raw.mb56.gz 6.14MB Simrad multibeam vendor format
0001_20020419_184353_raw.mb56.gz 24.72MB Simrad multibeam vendor format
0001_20020419_213143_raw.mb56.gz 3.48MB Simrad multibeam vendor format
0001_20020420_002500_raw.mb56.gz 1.88MB Simrad multibeam vendor format
0001_20020420_012935_raw.mb56.gz 229.7KB Simrad multibeam vendor format
0001_20020420_060705_raw.mb56.gz 30.37MB Simrad multibeam vendor format
0001_20020421_010615_raw.mb56.gz 7.24MB Simrad multibeam vendor format
0001_20020421_105256_raw.mb56.gz 12.71MB Simrad multibeam vendor format
0001_20020421_202221_raw.mb56.gz 5.10MB Simrad multibeam vendor format
0001_20020421_202819_raw.mb56.gz 121.45MB Simrad multibeam vendor format
0001_20020421_222908_raw.mb56.gz 95.04MB Simrad multibeam vendor format
0001_20020430_121411_raw.mb56.gz 1.87MB Simrad multibeam vendor format
0001_20020430_151547_raw.mb56.gz 72.5KB Simrad multibeam vendor format
0001_20020430_160049_raw.mb56.gz 2.93MB Simrad multibeam vendor format
0001_20020430_174906_raw.mb56.gz 27.77MB Simrad multibeam vendor format
0001_20020501_081452_raw.mb56.gz 0.66MB Simrad multibeam vendor format
0001_20020501_150506_raw.mb56.gz 8.79MB Simrad multibeam vendor format
0001_20020501_170900_raw.mb56.gz 9.26MB Simrad multibeam vendor format
0001_20020502_195209_raw.mb56.gz 2.21MB Simrad multibeam vendor format
0001_20020503_051338_raw.mb56.gz 4.73MB Simrad multibeam vendor format
0001_20020503_142653_raw.mb56.gz 20.34MB Simrad multibeam vendor format
0001_20020504_002003_raw.mb56.gz 30.86MB Simrad multibeam vendor format
0001_20020504_005055_raw.mb56.gz 46.60MB Simrad multibeam vendor format
0001_20020701_174131_raw.mb56.gz 43.12MB Simrad multibeam vendor format
0001_20020712_043158_raw.mb56.gz 2.16MB Simrad multibeam vendor format
0001_20020712_055648_raw.mb56.gz 79.63MB Simrad multibeam vendor format
0001_20020712_165201_raw.mb56.gz 4.7KB Simrad multibeam vendor format
0001_20020712_185503_raw.mb56.gz 29.84MB Simrad multibeam vendor format
0001_20020713_002023_raw.mb56.gz 4.18MB Simrad multibeam vendor format
0001_20020714_003055_raw.mb56.gz 13.02MB Simrad multibeam vendor format
0001_20020714_035434_raw.mb56.gz 35.41MB Simrad multibeam vendor format
0001_20020714_060122_raw.mb56.gz 11.35MB Simrad multibeam vendor format
0001_20020714_141759_raw.mb56.gz 3.05MB Simrad multibeam vendor format
0001_20020715_014602_raw.mb56.gz 37.45MB Simrad multibeam vendor format
0001_20020715_070439_raw.mb56.gz 6.02MB Simrad multibeam vendor format
0002_20020417_143619_raw.mb56.gz 7.02MB Simrad multibeam vendor format
0002_20020417_180737_raw.mb56.gz 19.14MB Simrad multibeam vendor format
0002_20020417_200946_raw.mb56.gz 6.25MB Simrad multibeam vendor format
0002_20020418_023838_raw.mb56.gz 3.67MB Simrad multibeam vendor format
0002_20020418_220522_raw.mb56.gz 1.15MB Simrad multibeam vendor format
0002_20020418_234646_raw.mb56.gz 2.98MB Simrad multibeam vendor format
0002_20020419_021217_raw.mb56.gz 18.36MB Simrad multibeam vendor format
0002_20020419_191838_raw.mb56.gz 4.01MB Simrad multibeam vendor format
0002_20020419_213457_raw.mb56.gz 4.61MB Simrad multibeam vendor format
0002_20020420_002625_raw.mb56.gz 26.74MB Simrad multibeam vendor format
0002_20020420_013140_raw.mb56.gz 1.85MB Simrad multibeam vendor format
0002_20020420_063033_raw.mb56.gz 4.12MB Simrad multibeam vendor format
0002_20020421_011429_raw.mb56.gz 326.7KB Simrad multibeam vendor format
0002_20020421_110257_raw.mb56.gz 3.21MB Simrad multibeam vendor format
0002_20020421_215708_raw.mb56.gz 7.37MB Simrad multibeam vendor format
0002_20020421_234021_raw.mb56.gz 27.13MB Simrad multibeam vendor format
0002_20020430_121542_raw.mb56.gz 131.72MB Simrad multibeam vendor format
0002_20020430_161552_raw.mb56.gz 2.04MB Simrad multibeam vendor format
0002_20020430_181509_raw.mb56.gz 34.99MB Simrad multibeam vendor format
0002_20020501_081634_raw.mb56.gz 16.79MB Simrad multibeam vendor format
0002_20020501_152620_raw.mb56.gz 16.56MB Simrad multibeam vendor format
0002_20020501_171818_raw.mb56.gz 38.38MB Simrad multibeam vendor format
0002_20020502_195420_raw.mb56.gz 30.93MB Simrad multibeam vendor format
0002_20020503_051750_raw.mb56.gz 3.08MB Simrad multibeam vendor format
0002_20020503_145840_raw.mb56.gz 3.09MB Simrad multibeam vendor format
0002_20020504_013104_raw.mb56.gz 42.97MB Simrad multibeam vendor format
0002_20020701_180349_raw.mb56.gz 174.4KB Simrad multibeam vendor format
0002_20020712_044102_raw.mb56.gz 20.10MB Simrad multibeam vendor format
0002_20020712_064825_raw.mb56.gz 3.54MB Simrad multibeam vendor format
0002_20020712_165411_raw.mb56.gz 437.2KB Simrad multibeam vendor format
0002_20020712_192502_raw.mb56.gz 27.23MB Simrad multibeam vendor format
0002_20020713_002442_raw.mb56.gz 195.9KB Simrad multibeam vendor format
0002_20020714_004657_raw.mb56.gz 31.52MB Simrad multibeam vendor format
0002_20020714_043214_raw.mb56.gz 22.56MB Simrad multibeam vendor format
0002_20020714_063328_raw.mb56.gz 6.66MB Simrad multibeam vendor format
0002_20020714_142105_raw.mb56.gz 28.45MB Simrad multibeam vendor format
0002_20020715_022002_raw.mb56.gz 36.65MB Simrad multibeam vendor format
0002_20020715_070819_raw.mb56.gz 3.14MB Simrad multibeam vendor format
0003_20020417_144152_raw.mb56.gz 2.82MB Simrad multibeam vendor format
0003_20020417_190957_raw.mb56.gz 15.74MB Simrad multibeam vendor format
0003_20020417_201409_raw.mb56.gz 8.09MB Simrad multibeam vendor format
0003_20020418_024144_raw.mb56.gz 3.19MB Simrad multibeam vendor format
0003_20020418_220614_raw.mb56.gz 20.70MB Simrad multibeam vendor format
0003_20020418_235156_raw.mb56.gz 33.63MB Simrad multibeam vendor format
0003_20020419_022834_raw.mb56.gz 2.97MB Simrad multibeam vendor format
0003_20020419_192141_raw.mb56.gz 24.04MB Simrad multibeam vendor format
0003_20020419_213918_raw.mb56.gz 23.32MB Simrad multibeam vendor format
0003_20020420_004751_raw.mb56.gz 3.06MB Simrad multibeam vendor format
0003_20020420_013307_raw.mb56.gz 18.61MB Simrad multibeam vendor format
0003_20020420_063338_raw.mb56.gz 28.09MB Simrad multibeam vendor format
0003_20020421_011458_raw.mb56.gz 2.68MB Simrad multibeam vendor format
0003_20020421_110544_raw.mb56.gz 29.68MB Simrad multibeam vendor format
0003_20020421_220531_raw.mb56.gz 6.31MB Simrad multibeam vendor format
0003_20020430_141822_raw.mb56.gz 4.74MB Simrad multibeam vendor format
0003_20020430_184517_raw.mb56.gz 33.36MB Simrad multibeam vendor format
0003_20020501_083302_raw.mb56.gz 14.69MB Simrad multibeam vendor format
0003_20020501_154754_raw.mb56.gz 65.88MB Simrad multibeam vendor format
0003_20020501_175609_raw.mb56.gz 8.54MB Simrad multibeam vendor format
0003_20020502_202317_raw.mb56.gz 37.14MB Simrad multibeam vendor format
0003_20020503_052044_raw.mb56.gz 15.63MB Simrad multibeam vendor format
0003_20020503_152700_raw.mb56.gz 15.78MB Simrad multibeam vendor format
0003_20020504_020349_raw.mb56.gz 21.30MB Simrad multibeam vendor format
0003_20020712_045424_raw.mb56.gz 69.08MB Simrad multibeam vendor format
0003_20020712_070026_raw.mb56.gz 6.37MB Simrad multibeam vendor format
0003_20020712_170307_raw.mb56.gz 7.83MB Simrad multibeam vendor format
0003_20020712_195513_raw.mb56.gz 28.67MB Simrad multibeam vendor format
0003_20020713_002658_raw.mb56.gz 28.24MB Simrad multibeam vendor format
0003_20020714_011814_raw.mb56.gz 2.93MB Simrad multibeam vendor format
0003_20020714_045921_raw.mb56.gz 31.17MB Simrad multibeam vendor format
0003_20020714_064409_raw.mb56.gz 8.30MB Simrad multibeam vendor format
0003_20020714_145003_raw.mb56.gz 16.62MB Simrad multibeam vendor format
0003_20020715_025230_raw.mb56.gz 36.13MB Simrad multibeam vendor format
0003_20020715_071014_raw.mb56.gz 5.77MB Simrad multibeam vendor format
0004_20020417_144405_raw.mb56.gz 6.23MB Simrad multibeam vendor format
0004_20020417_192140_raw.mb56.gz 3.97MB Simrad multibeam vendor format
0004_20020417_202008_raw.mb56.gz 3.89MB Simrad multibeam vendor format
0004_20020418_024433_raw.mb56.gz 20.71MB Simrad multibeam vendor format
0004_20020418_222252_raw.mb56.gz 3.58MB Simrad multibeam vendor format
0004_20020419_001520_raw.mb56.gz 25.65MB Simrad multibeam vendor format
0004_20020419_023115_raw.mb56.gz 20.07MB Simrad multibeam vendor format
0004_20020419_194127_raw.mb56.gz 3.51MB Simrad multibeam vendor format
0004_20020419_215840_raw.mb56.gz 3.00MB Simrad multibeam vendor format
0004_20020420_005047_raw.mb56.gz 25.46MB Simrad multibeam vendor format
0004_20020420_014801_raw.mb56.gz 3.53MB Simrad multibeam vendor format
0004_20020420_065528_raw.mb56.gz 4.06MB Simrad multibeam vendor format
0004_20020421_011720_raw.mb56.gz 30.22MB Simrad multibeam vendor format
0004_20020421_112845_raw.mb56.gz 3.85MB Simrad multibeam vendor format
0004_20020421_221330_raw.mb56.gz 425.3KB Simrad multibeam vendor format
0004_20020430_142115_raw.mb56.gz 6.98MB Simrad multibeam vendor format
0004_20020430_191445_raw.mb56.gz 34.03MB Simrad multibeam vendor format
0004_20020501_084724_raw.mb56.gz 6.50MB Simrad multibeam vendor format
0004_20020501_180433_raw.mb56.gz 66.46MB Simrad multibeam vendor format
0004_20020502_205817_raw.mb56.gz 18.91MB Simrad multibeam vendor format
0004_20020503_053434_raw.mb56.gz 3.46MB Simrad multibeam vendor format
0004_20020503_154755_raw.mb56.gz 13.17MB Simrad multibeam vendor format
0004_20020504_021824_raw.mb56.gz 63.45MB Simrad multibeam vendor format
0004_20020712_070526_raw.mb56.gz 1.70MB Simrad multibeam vendor format
0004_20020712_171041_raw.mb56.gz 8.18MB Simrad multibeam vendor format
0004_20020712_202547_raw.mb56.gz 4.07MB Simrad multibeam vendor format
0004_20020713_005603_raw.mb56.gz 29.37MB Simrad multibeam vendor format
0004_20020714_012111_raw.mb56.gz 29.90MB Simrad multibeam vendor format
0004_20020714_053120_raw.mb56.gz 28.02MB Simrad multibeam vendor format
0004_20020714_065256_raw.mb56.gz 12.28MB Simrad multibeam vendor format
0004_20020714_150702_raw.mb56.gz 3.75MB Simrad multibeam vendor format
0004_20020715_032345_raw.mb56.gz 34.10MB Simrad multibeam vendor format
0004_20020715_071347_raw.mb56.gz 2.74MB Simrad multibeam vendor format
0005_20020417_144903_raw.mb56.gz 4.62MB Simrad multibeam vendor format
0005_20020417_192430_raw.mb56.gz 4.72MB Simrad multibeam vendor format
0005_20020417_202255_raw.mb56.gz 4.35MB Simrad multibeam vendor format
0005_20020418_030042_raw.mb56.gz 4.37MB Simrad multibeam vendor format
0005_20020418_222611_raw.mb56.gz 20.45MB Simrad multibeam vendor format
0005_20020419_003548_raw.mb56.gz 3.27MB Simrad multibeam vendor format
0005_20020419_024719_raw.mb56.gz 8.47MB Simrad multibeam vendor format
0005_20020419_194443_raw.mb56.gz 23.70MB Simrad multibeam vendor format
0005_20020419_220059_raw.mb56.gz 24.16MB Simrad multibeam vendor format
0005_20020420_011111_raw.mb56.gz 3.96MB Simrad multibeam vendor format
0005_20020420_015113_raw.mb56.gz 25.98MB Simrad multibeam vendor format
0005_20020420_065839_raw.mb56.gz 28.65MB Simrad multibeam vendor format
0005_20020421_014012_raw.mb56.gz 3.94MB Simrad multibeam vendor format
0005_20020421_113133_raw.mb56.gz 30.79MB Simrad multibeam vendor format
0005_20020421_221357_raw.mb56.gz 3.64MB Simrad multibeam vendor format
0005_20020430_142611_raw.mb56.gz 4.29MB Simrad multibeam vendor format
0005_20020430_194454_raw.mb56.gz 34.83MB Simrad multibeam vendor format
0005_20020501_085346_raw.mb56.gz 4.50MB Simrad multibeam vendor format
0005_20020501_191031_raw.mb56.gz 4.36MB Simrad multibeam vendor format
0005_20020502_211550_raw.mb56.gz 3.36MB Simrad multibeam vendor format
0005_20020503_053749_raw.mb56.gz 6.76MB Simrad multibeam vendor format
0005_20020503_160135_raw.mb56.gz 32.18MB Simrad multibeam vendor format
0005_20020504_030039_raw.mb56.gz 39.50MB Simrad multibeam vendor format
0005_20020712_073039_raw.mb56.gz 17.41MB Simrad multibeam vendor format
0005_20020712_171837_raw.mb56.gz 4.88MB Simrad multibeam vendor format
0005_20020712_203126_raw.mb56.gz 2.70MB Simrad multibeam vendor format
0005_20020713_012601_raw.mb56.gz 11.68MB Simrad multibeam vendor format
0005_20020714_015101_raw.mb56.gz 7.96MB Simrad multibeam vendor format
0005_20020714_070520_raw.mb56.gz 16.05MB Simrad multibeam vendor format
0005_20020714_154528_raw.mb56.gz 5.19MB Simrad multibeam vendor format
0005_20020715_035244_raw.mb56.gz 33.89MB Simrad multibeam vendor format
0005_20020715_071525_raw.mb56.gz 6.07MB Simrad multibeam vendor format
0006_20020417_145240_raw.mb56.gz 9.49MB Simrad multibeam vendor format
0006_20020417_192754_raw.mb56.gz 6.76MB Simrad multibeam vendor format
0006_20020417_204545_raw.mb56.gz 7.96MB Simrad multibeam vendor format
0006_20020418_030402_raw.mb56.gz 20.35MB Simrad multibeam vendor format
0006_20020418_225153_raw.mb56.gz 47.02MB Simrad multibeam vendor format
0006_20020419_003847_raw.mb56.gz 59.4KB Simrad multibeam vendor format
0006_20020419_025337_raw.mb56.gz 20.34MB Simrad multibeam vendor format
0006_20020419_200404_raw.mb56.gz 4.25MB Simrad multibeam vendor format
0006_20020419_222136_raw.mb56.gz 3.00MB Simrad multibeam vendor format
0006_20020420_011412_raw.mb56.gz 8.48MB Simrad multibeam vendor format
0006_20020420_021158_raw.mb56.gz 3.62MB Simrad multibeam vendor format
0006_20020420_073134_raw.mb56.gz 13.88MB Simrad multibeam vendor format
0006_20020421_014303_raw.mb56.gz 32.09MB Simrad multibeam vendor format
0006_20020421_115457_raw.mb56.gz 3.36MB Simrad multibeam vendor format
0006_20020421_221853_raw.mb56.gz 1.46MB Simrad multibeam vendor format
0006_20020430_142905_raw.mb56.gz 6.66MB Simrad multibeam vendor format
0006_20020430_201534_raw.mb56.gz 24.71MB Simrad multibeam vendor format
0006_20020501_085806_raw.mb56.gz 2.88MB Simrad multibeam vendor format
0006_20020501_191510_raw.mb56.gz 40.00MB Simrad multibeam vendor format
0006_20020502_211902_raw.mb56.gz 12.76MB Simrad multibeam vendor format
0006_20020503_054353_raw.mb56.gz 2.04MB Simrad multibeam vendor format
0006_20020503_163501_raw.mb56.gz 22.58MB Simrad multibeam vendor format
0006_20020504_033007_raw.mb56.gz 33.47MB Simrad multibeam vendor format
0006_20020712_080008_raw.mb56.gz 19.79MB Simrad multibeam vendor format
0006_20020712_172322_raw.mb56.gz 3.02MB Simrad multibeam vendor format
0006_20020712_203529_raw.mb56.gz 27.18MB Simrad multibeam vendor format
0006_20020713_013739_raw.mb56.gz 3.52MB Simrad multibeam vendor format
0006_20020714_015856_raw.mb56.gz 4.26MB Simrad multibeam vendor format
0006_20020714_072148_raw.mb56.gz 4.01MB Simrad multibeam vendor format
0006_20020714_173610_raw.mb56.gz 16.80MB Simrad multibeam vendor format
0006_20020715_042101_raw.mb56.gz 37.63MB Simrad multibeam vendor format
0006_20020715_071904_raw.mb56.gz 2.72MB Simrad multibeam vendor format
0007_20020417_193242_raw.mb56.gz 2.89MB Simrad multibeam vendor format
0007_20020417_205231_raw.mb56.gz 17.30MB Simrad multibeam vendor format
0007_20020418_032009_raw.mb56.gz 3.25MB Simrad multibeam vendor format
0007_20020419_003851_raw.mb56.gz 20.17MB Simrad multibeam vendor format
0007_20020419_030957_raw.mb56.gz 2.92MB Simrad multibeam vendor format
0007_20020419_200719_raw.mb56.gz 24.43MB Simrad multibeam vendor format
0007_20020419_222426_raw.mb56.gz 23.16MB Simrad multibeam vendor format
0007_20020420_021442_raw.mb56.gz 27.08MB Simrad multibeam vendor format
0007_20020420_074219_raw.mb56.gz 15.96MB Simrad multibeam vendor format
0007_20020421_020653_raw.mb56.gz 41.4KB Simrad multibeam vendor format
0007_20020421_115749_raw.mb56.gz 30.23MB Simrad multibeam vendor format
0007_20020421_222051_raw.mb56.gz 3.32MB Simrad multibeam vendor format
0007_20020430_143341_raw.mb56.gz 5.87MB Simrad multibeam vendor format
0007_20020430_203730_raw.mb56.gz 65.82MB Simrad multibeam vendor format
0007_20020501_090056_raw.mb56.gz 5.41MB Simrad multibeam vendor format
0007_20020501_195436_raw.mb56.gz 5.11MB Simrad multibeam vendor format
0007_20020502_213052_raw.mb56.gz 4.28MB Simrad multibeam vendor format
0007_20020503_061943_raw.mb56.gz 1.99MB Simrad multibeam vendor format
0007_20020503_165755_raw.mb56.gz 29.83MB Simrad multibeam vendor format
0007_20020504_040037_raw.mb56.gz 30.16MB Simrad multibeam vendor format
0007_20020712_081619_raw.mb56.gz 16.64MB Simrad multibeam vendor format
0007_20020712_172627_raw.mb56.gz 4.19MB Simrad multibeam vendor format
0007_20020712_210500_raw.mb56.gz 27.98MB Simrad multibeam vendor format
0007_20020713_014113_raw.mb56.gz 18.55MB Simrad multibeam vendor format
0007_20020714_020314_raw.mb56.gz 35.38MB Simrad multibeam vendor format
0007_20020714_072600_raw.mb56.gz 15.27MB Simrad multibeam vendor format
0007_20020714_175324_raw.mb56.gz 6.55MB Simrad multibeam vendor format
0007_20020715_045210_raw.mb56.gz 37.82MB Simrad multibeam vendor format
0007_20020715_072047_raw.mb56.gz 5.69MB Simrad multibeam vendor format
0008_20020417_193449_raw.mb56.gz 3.74MB Simrad multibeam vendor format
0008_20020417_210900_raw.mb56.gz 1.30MB Simrad multibeam vendor format
0008_20020418_032259_raw.mb56.gz 9.72MB Simrad multibeam vendor format
0008_20020419_005451_raw.mb56.gz 3.93MB Simrad multibeam vendor format
0008_20020419_031239_raw.mb56.gz 19.94MB Simrad multibeam vendor format
0008_20020419_202719_raw.mb56.gz 3.41MB Simrad multibeam vendor format
0008_20020419_224400_raw.mb56.gz 3.52MB Simrad multibeam vendor format
0008_20020420_023610_raw.mb56.gz 3.64MB Simrad multibeam vendor format
0008_20020420_081743_raw.mb56.gz 1.07MB Simrad multibeam vendor format
0008_20020421_020656_raw.mb56.gz 3.16MB Simrad multibeam vendor format
0008_20020421_122052_raw.mb56.gz 3.91MB Simrad multibeam vendor format
0008_20020421_222527_raw.mb56.gz 1.50MB Simrad multibeam vendor format
0008_20020430_143727_raw.mb56.gz 6.06MB Simrad multibeam vendor format
0008_20020430_214925_raw.mb56.gz 4.22MB Simrad multibeam vendor format
0008_20020501_090611_raw.mb56.gz 3.71MB Simrad multibeam vendor format
0008_20020501_195940_raw.mb56.gz 58.70MB Simrad multibeam vendor format
0008_20020502_213458_raw.mb56.gz 19.07MB Simrad multibeam vendor format
0008_20020503_063026_raw.mb56.gz 187.8KB Simrad multibeam vendor format
0008_20020503_172806_raw.mb56.gz 21.88MB Simrad multibeam vendor format
0008_20020504_042944_raw.mb56.gz 26.64MB Simrad multibeam vendor format
0008_20020712_083004_raw.mb56.gz 35.69MB Simrad multibeam vendor format
0008_20020712_173043_raw.mb56.gz 3.10MB Simrad multibeam vendor format
0008_20020712_213503_raw.mb56.gz 17.21MB Simrad multibeam vendor format
0008_20020713_020005_raw.mb56.gz 28.97MB Simrad multibeam vendor format
0008_20020714_023829_raw.mb56.gz 3.40MB Simrad multibeam vendor format
0008_20020714_074146_raw.mb56.gz 3.25MB Simrad multibeam vendor format
0008_20020714_180057_raw.mb56.gz 11.04MB Simrad multibeam vendor format
0008_20020715_052309_raw.mb56.gz 43.01MB Simrad multibeam vendor format
0008_20020715_072417_raw.mb56.gz 2.70MB Simrad multibeam vendor format
0009_20020417_193730_raw.mb56.gz 4.31MB Simrad multibeam vendor format
0009_20020417_211027_raw.mb56.gz 2.72MB Simrad multibeam vendor format
0009_20020418_034619_raw.mb56.gz 14.33MB Simrad multibeam vendor format
0009_20020419_005749_raw.mb56.gz 20.62MB Simrad multibeam vendor format
0009_20020419_032843_raw.mb56.gz 3.88MB Simrad multibeam vendor format
0009_20020419_203033_raw.mb56.gz 23.63MB Simrad multibeam vendor format
0009_20020419_224650_raw.mb56.gz 23.95MB Simrad multibeam vendor format
0009_20020420_023910_raw.mb56.gz 26.52MB Simrad multibeam vendor format
0009_20020420_082112_raw.mb56.gz 1.30MB Simrad multibeam vendor format
0009_20020421_020941_raw.mb56.gz 30.56MB Simrad multibeam vendor format
0009_20020421_122342_raw.mb56.gz 31.21MB Simrad multibeam vendor format
0009_20020430_144315_raw.mb56.gz 2.30MB Simrad multibeam vendor format
0009_20020430_215315_raw.mb56.gz 63.6KB Simrad multibeam vendor format
0009_20020501_090950_raw.mb56.gz 9.09MB Simrad multibeam vendor format
0009_20020501_205842_raw.mb56.gz 2.88MB Simrad multibeam vendor format
0009_20020502_215216_raw.mb56.gz 2.78MB Simrad multibeam vendor format
0009_20020503_063105_raw.mb56.gz 15.62MB Simrad multibeam vendor format
0009_20020503_175003_raw.mb56.gz 20.40MB Simrad multibeam vendor format
0009_20020504_050000_raw.mb56.gz 21.31MB Simrad multibeam vendor format
0009_20020712_090014_raw.mb56.gz 34.04MB Simrad multibeam vendor format
0009_20020712_173351_raw.mb56.gz 2.85MB Simrad multibeam vendor format
0009_20020712_215219_raw.mb56.gz 15.63MB Simrad multibeam vendor format
0009_20020713_023006_raw.mb56.gz 29.06MB Simrad multibeam vendor format
0009_20020714_024151_raw.mb56.gz 36.18MB Simrad multibeam vendor format
0009_20020714_074505_raw.mb56.gz 15.86MB Simrad multibeam vendor format
0009_20020714_182006_raw.mb56.gz 31.34MB Simrad multibeam vendor format
0009_20020715_055410_raw.mb56.gz 39.25MB Simrad multibeam vendor format
0009_20020715_072558_raw.mb56.gz 6.00MB Simrad multibeam vendor format
0010_20020417_194041_raw.mb56.gz 3.99MB Simrad multibeam vendor format
0010_20020417_211256_raw.mb56.gz 19.33MB Simrad multibeam vendor format
0010_20020418_035722_raw.mb56.gz 163.1KB Simrad multibeam vendor format
0010_20020419_011412_raw.mb56.gz 3.24MB Simrad multibeam vendor format
0010_20020419_033138_raw.mb56.gz 20.02MB Simrad multibeam vendor format
0010_20020419_204954_raw.mb56.gz 4.74MB Simrad multibeam vendor format
0010_20020419_230741_raw.mb56.gz 2.86MB Simrad multibeam vendor format
0010_20020420_030009_raw.mb56.gz 3.78MB Simrad multibeam vendor format
0010_20020420_082227_raw.mb56.gz 1.82MB Simrad multibeam vendor format
0010_20020421_023236_raw.mb56.gz 3.78MB Simrad multibeam vendor format
0010_20020421_124705_raw.mb56.gz 3.55MB Simrad multibeam vendor format
0010_20020430_144451_raw.mb56.gz 7.09MB Simrad multibeam vendor format
0010_20020430_220422_raw.mb56.gz 62.22MB Simrad multibeam vendor format
0010_20020501_091840_raw.mb56.gz 1.24MB Simrad multibeam vendor format
0010_20020501_210201_raw.mb56.gz 40.23MB Simrad multibeam vendor format
0010_20020502_215448_raw.mb56.gz 13.28MB Simrad multibeam vendor format
0010_20020503_064518_raw.mb56.gz 2.30MB Simrad multibeam vendor format
0010_20020503_181039_raw.mb56.gz 20.95MB Simrad multibeam vendor format
0010_20020504_053000_raw.mb56.gz 21.45MB Simrad multibeam vendor format
0010_20020712_093000_raw.mb56.gz 34.70MB Simrad multibeam vendor format
0010_20020712_173639_raw.mb56.gz 4.24MB Simrad multibeam vendor format
0010_20020712_220746_raw.mb56.gz 4.15MB Simrad multibeam vendor format
0010_20020713_030000_raw.mb56.gz 7.84MB Simrad multibeam vendor format
0010_20020714_031800_raw.mb56.gz 3.07MB Simrad multibeam vendor format
0010_20020714_080122_raw.mb56.gz 3.47MB Simrad multibeam vendor format
0010_20020714_185145_raw.mb56.gz 3.68MB Simrad multibeam vendor format
0010_20020715_062057_raw.mb56.gz 12.50MB Simrad multibeam vendor format
0010_20020715_072936_raw.mb56.gz 2.54MB Simrad multibeam vendor format
0011_20020417_194333_raw.mb56.gz 4.12MB Simrad multibeam vendor format
0011_20020417_212844_raw.mb56.gz 4.53MB Simrad multibeam vendor format
0011_20020418_035729_raw.mb56.gz 4.74MB Simrad multibeam vendor format
0011_20020419_011712_raw.mb56.gz 20.61MB Simrad multibeam vendor format
0011_20020419_034748_raw.mb56.gz 2.83MB Simrad multibeam vendor format
0011_20020419_205334_raw.mb56.gz 21.42MB Simrad multibeam vendor format
0011_20020419_231022_raw.mb56.gz 24.27MB Simrad multibeam vendor format
0011_20020420_030259_raw.mb56.gz 28.32MB Simrad multibeam vendor format
0011_20020420_082806_raw.mb56.gz 6.63MB Simrad multibeam vendor format
0011_20020421_023518_raw.mb56.gz 32.01MB Simrad multibeam vendor format
0011_20020421_124954_raw.mb56.gz 30.58MB Simrad multibeam vendor format
0011_20020430_145009_raw.mb56.gz 1.44MB Simrad multibeam vendor format
0011_20020430_230000_raw.mb56.gz 34.14MB Simrad multibeam vendor format
0011_20020501_094440_raw.mb56.gz 15.79MB Simrad multibeam vendor format
0011_20020501_214333_raw.mb56.gz 2.78MB Simrad multibeam vendor format
0011_20020502_220652_raw.mb56.gz 4.61MB Simrad multibeam vendor format
0011_20020503_064725_raw.mb56.gz 15.49MB Simrad multibeam vendor format
0011_20020503_183130_raw.mb56.gz 11.06MB Simrad multibeam vendor format
0011_20020504_055950_raw.mb56.gz 28.20MB Simrad multibeam vendor format
0011_20020712_100008_raw.mb56.gz 34.25MB Simrad multibeam vendor format
0011_20020712_174046_raw.mb56.gz 509.5KB Simrad multibeam vendor format
0011_20020712_221156_raw.mb56.gz 29.67MB Simrad multibeam vendor format
0011_20020713_030950_raw.mb56.gz 2.60MB Simrad multibeam vendor format
0011_20020714_032105_raw.mb56.gz 32.64MB Simrad multibeam vendor format
0011_20020714_080456_raw.mb56.gz 15.21MB Simrad multibeam vendor format
0011_20020714_185525_raw.mb56.gz 24.85MB Simrad multibeam vendor format
0011_20020715_073112_raw.mb56.gz 5.51MB Simrad multibeam vendor format
0012_20020417_194633_raw.mb56.gz 3.93MB Simrad multibeam vendor format
0012_20020417_213203_raw.mb56.gz 20.33MB Simrad multibeam vendor format
0012_20020418_040108_raw.mb56.gz 20.52MB Simrad multibeam vendor format
0012_20020419_013331_raw.mb56.gz 3.91MB Simrad multibeam vendor format
0012_20020419_035027_raw.mb56.gz 16.40MB Simrad multibeam vendor format
0012_20020419_233006_raw.mb56.gz 3.75MB Simrad multibeam vendor format
0012_20020420_032529_raw.mb56.gz 3.67MB Simrad multibeam vendor format
0012_20020420_083326_raw.mb56.gz 0.63MB Simrad multibeam vendor format
0012_20020421_025905_raw.mb56.gz 3.35MB Simrad multibeam vendor format
0012_20020421_131258_raw.mb56.gz 3.76MB Simrad multibeam vendor format
0012_20020430_233048_raw.mb56.gz 31.82MB Simrad multibeam vendor format
0012_20020501_100001_raw.mb56.gz 0.79MB Simrad multibeam vendor format
0012_20020501_214626_raw.mb56.gz 52.76MB Simrad multibeam vendor format
0012_20020502_221116_raw.mb56.gz 0.90MB Simrad multibeam vendor format
0012_20020503_070058_raw.mb56.gz 3.88MB Simrad multibeam vendor format
0012_20020503_185758_raw.mb56.gz 35.54MB Simrad multibeam vendor format
0012_20020504_063715_raw.mb56.gz 21.53MB Simrad multibeam vendor format
0012_20020712_103001_raw.mb56.gz 34.38MB Simrad multibeam vendor format
0012_20020712_224201_raw.mb56.gz 27.58MB Simrad multibeam vendor format
0012_20020713_031320_raw.mb56.gz 28.14MB Simrad multibeam vendor format
0012_20020714_035340_raw.mb56.gz 22.7KB Simrad multibeam vendor format
0012_20020714_082048_raw.mb56.gz 3.36MB Simrad multibeam vendor format
0012_20020714_192007_raw.mb56.gz 19.23MB Simrad multibeam vendor format
0012_20020715_073436_raw.mb56.gz 2.72MB Simrad multibeam vendor format
0013_20020417_194924_raw.mb56.gz 4.57MB Simrad multibeam vendor format
0013_20020417_214849_raw.mb56.gz 3.41MB Simrad multibeam vendor format
0013_20020418_041716_raw.mb56.gz 121.8KB Simrad multibeam vendor format
0013_20020419_040405_raw.mb56.gz 11.01MB Simrad multibeam vendor format
0013_20020419_233302_raw.mb56.gz 25.93MB Simrad multibeam vendor format
0013_20020420_032830_raw.mb56.gz 28.30MB Simrad multibeam vendor format
0013_20020420_083355_raw.mb56.gz 29.65MB Simrad multibeam vendor format
0013_20020421_030155_raw.mb56.gz 30.81MB Simrad multibeam vendor format
0013_20020421_131541_raw.mb56.gz 30.90MB Simrad multibeam vendor format
0013_20020501_000000_raw.mb56.gz 33.10MB Simrad multibeam vendor format
0013_20020501_100045_raw.mb56.gz 30.39MB Simrad multibeam vendor format
0013_20020501_224311_raw.mb56.gz 416.8KB Simrad multibeam vendor format
0013_20020502_221207_raw.mb56.gz 18.72MB Simrad multibeam vendor format
0013_20020503_070427_raw.mb56.gz 16.42MB Simrad multibeam vendor format
0013_20020503_193046_raw.mb56.gz 37.67MB Simrad multibeam vendor format
0013_20020504_070119_raw.mb56.gz 29.17MB Simrad multibeam vendor format
0013_20020712_110001_raw.mb56.gz 32.63MB Simrad multibeam vendor format
0013_20020712_231201_raw.mb56.gz 14.72MB Simrad multibeam vendor format
0013_20020713_034301_raw.mb56.gz 31.50MB Simrad multibeam vendor format
0013_20020714_082413_raw.mb56.gz 15.45MB Simrad multibeam vendor format
0013_20020714_193916_raw.mb56.gz 3.76MB Simrad multibeam vendor format
0013_20020715_073618_raw.mb56.gz 6.19MB Simrad multibeam vendor format
0014_20020417_195243_raw.mb56.gz 3.79MB Simrad multibeam vendor format
0014_20020417_215158_raw.mb56.gz 19.35MB Simrad multibeam vendor format
0014_20020418_041729_raw.mb56.gz 509.5KB Simrad multibeam vendor format
0014_20020419_041240_raw.mb56.gz 5.08MB Simrad multibeam vendor format
0014_20020419_235408_raw.mb56.gz 3.20MB Simrad multibeam vendor format
0014_20020420_035050_raw.mb56.gz 3.58MB Simrad multibeam vendor format
0014_20020420_085700_raw.mb56.gz 3.18MB Simrad multibeam vendor format
0014_20020421_032451_raw.mb56.gz 4.08MB Simrad multibeam vendor format
0014_20020421_133839_raw.mb56.gz 1.29MB Simrad multibeam vendor format
0014_20020501_003001_raw.mb56.gz 31.79MB Simrad multibeam vendor format
0014_20020501_103007_raw.mb56.gz 34.72MB Simrad multibeam vendor format
0014_20020501_234251_raw.mb56.gz 2.46MB Simrad multibeam vendor format
0014_20020502_222840_raw.mb56.gz 3.78MB Simrad multibeam vendor format
0014_20020503_071912_raw.mb56.gz 2.89MB Simrad multibeam vendor format
0014_20020503_200011_raw.mb56.gz 18.39MB Simrad multibeam vendor format
0014_20020504_072836_raw.mb56.gz 40.07MB Simrad multibeam vendor format
0014_20020712_113001_raw.mb56.gz 31.38MB Simrad multibeam vendor format
0014_20020712_232701_raw.mb56.gz 13.10MB Simrad multibeam vendor format
0014_20020713_041452_raw.mb56.gz 20.62MB Simrad multibeam vendor format
0014_20020714_084000_raw.mb56.gz 3.50MB Simrad multibeam vendor format
0014_20020714_194304_raw.mb56.gz 27.12MB Simrad multibeam vendor format
0014_20020715_074006_raw.mb56.gz 2.74MB Simrad multibeam vendor format
0015_20020417_220749_raw.mb56.gz 4.56MB Simrad multibeam vendor format
0015_20020418_043008_raw.mb56.gz 2.76MB Simrad multibeam vendor format
0015_20020419_041626_raw.mb56.gz 3.96MB Simrad multibeam vendor format
0015_20020419_235712_raw.mb56.gz 24.74MB Simrad multibeam vendor format
0015_20020420_035334_raw.mb56.gz 28.49MB Simrad multibeam vendor format
0015_20020420_085920_raw.mb56.gz 29.43MB Simrad multibeam vendor format
0015_20020421_032746_raw.mb56.gz 32.17MB Simrad multibeam vendor format
0015_20020421_142406_raw.mb56.gz 12.30MB Simrad multibeam vendor format
0015_20020501_005903_raw.mb56.gz 33.65MB Simrad multibeam vendor format
0015_20020501_112621_raw.mb56.gz 34.97MB Simrad multibeam vendor format
0015_20020501_234604_raw.mb56.gz 37.78MB Simrad multibeam vendor format
0015_20020502_223205_raw.mb56.gz 13.59MB Simrad multibeam vendor format
0015_20020503_072154_raw.mb56.gz 15.24MB Simrad multibeam vendor format
0015_20020503_201635_raw.mb56.gz 67.18MB Simrad multibeam vendor format
0015_20020504_075719_raw.mb56.gz 102.72MB Simrad multibeam vendor format
0015_20020712_120001_raw.mb56.gz 32.30MB Simrad multibeam vendor format
0015_20020712_234248_raw.mb56.gz 2.73MB Simrad multibeam vendor format
0015_20020713_043518_raw.mb56.gz 3.90MB Simrad multibeam vendor format
0015_20020714_084341_raw.mb56.gz 15.08MB Simrad multibeam vendor format
0015_20020714_201010_raw.mb56.gz 22.52MB Simrad multibeam vendor format
0015_20020715_074151_raw.mb56.gz 5.59MB Simrad multibeam vendor format
0016_20020417_221110_raw.mb56.gz 20.16MB Simrad multibeam vendor format
0016_20020418_043228_raw.mb56.gz 21.07MB Simrad multibeam vendor format
0016_20020419_041926_raw.mb56.gz 19.71MB Simrad multibeam vendor format
0016_20020420_001708_raw.mb56.gz 1.68MB Simrad multibeam vendor format
0016_20020420_041555_raw.mb56.gz 3.67MB Simrad multibeam vendor format
0016_20020420_092238_raw.mb56.gz 4.22MB Simrad multibeam vendor format
0016_20020421_035124_raw.mb56.gz 4.49MB Simrad multibeam vendor format
0016_20020421_143338_raw.mb56.gz 33.08MB Simrad multibeam vendor format
0016_20020501_013002_raw.mb56.gz 32.32MB Simrad multibeam vendor format
0016_20020501_120001_raw.mb56.gz 25.67MB Simrad multibeam vendor format
0016_20020502_002811_raw.mb56.gz 45.66MB Simrad multibeam vendor format
0016_20020502_224408_raw.mb56.gz 3.40MB Simrad multibeam vendor format
0016_20020503_073530_raw.mb56.gz 3.73MB Simrad multibeam vendor format
0016_20020503_210716_raw.mb56.gz 42.08MB Simrad multibeam vendor format
0016_20020504_090009_raw.mb56.gz 55.17MB Simrad multibeam vendor format
0016_20020712_123229_raw.mb56.gz 26.51MB Simrad multibeam vendor format
0016_20020712_234634_raw.mb56.gz 11.54MB Simrad multibeam vendor format
0016_20020713_043915_raw.mb56.gz 29.62MB Simrad multibeam vendor format
0016_20020714_085922_raw.mb56.gz 3.73MB Simrad multibeam vendor format
0016_20020714_203242_raw.mb56.gz 3.79MB Simrad multibeam vendor format
0017_20020417_222744_raw.mb56.gz 3.33MB Simrad multibeam vendor format
0017_20020418_044847_raw.mb56.gz 428.6KB Simrad multibeam vendor format
0017_20020419_043535_raw.mb56.gz 2.72MB Simrad multibeam vendor format
0017_20020420_041846_raw.mb56.gz 28.25MB Simrad multibeam vendor format
0017_20020420_092559_raw.mb56.gz 29.76MB Simrad multibeam vendor format
0017_20020421_035511_raw.mb56.gz 31.21MB Simrad multibeam vendor format
0017_20020421_145931_raw.mb56.gz 13.22MB Simrad multibeam vendor format
0017_20020501_020002_raw.mb56.gz 31.85MB Simrad multibeam vendor format
0017_20020501_122508_raw.mb56.gz 15.14MB Simrad multibeam vendor format
0017_20020502_012527_raw.mb56.gz 2.08MB Simrad multibeam vendor format
0017_20020502_224721_raw.mb56.gz 19.87MB Simrad multibeam vendor format
0017_20020503_073855_raw.mb56.gz 16.24MB Simrad multibeam vendor format
0017_20020504_001650_raw.mb56.gz 401.0KB Simrad multibeam vendor format
0017_20020504_093001_raw.mb56.gz 25.44MB Simrad multibeam vendor format
0017_20020712_130155_raw.mb56.gz 9.34MB Simrad multibeam vendor format
0017_20020713_050901_raw.mb56.gz 29.07MB Simrad multibeam vendor format
0017_20020714_090311_raw.mb56.gz 15.18MB Simrad multibeam vendor format
0017_20020714_203633_raw.mb56.gz 15.25MB Simrad multibeam vendor format
0018_20020417_223049_raw.mb56.gz 19.09MB Simrad multibeam vendor format
0018_20020418_045107_raw.mb56.gz 6.05MB Simrad multibeam vendor format
0018_20020419_043809_raw.mb56.gz 21.25MB Simrad multibeam vendor format
0018_20020420_044027_raw.mb56.gz 3.53MB Simrad multibeam vendor format
0018_20020420_094916_raw.mb56.gz 3.49MB Simrad multibeam vendor format
0018_20020421_041822_raw.mb56.gz 3.83MB Simrad multibeam vendor format
0018_20020421_150957_raw.mb56.gz 6.59MB Simrad multibeam vendor format
0018_20020501_023005_raw.mb56.gz 31.88MB Simrad multibeam vendor format
0018_20020501_130623_raw.mb56.gz 1.19MB Simrad multibeam vendor format
0018_20020502_012819_raw.mb56.gz 33.16MB Simrad multibeam vendor format
0018_20020502_230441_raw.mb56.gz 3.53MB Simrad multibeam vendor format
0018_20020503_075330_raw.mb56.gz 2.87MB Simrad multibeam vendor format
0018_20020504_094501_raw.mb56.gz 130.5KB Simrad multibeam vendor format
0018_20020712_141922_raw.mb56.gz 3.36MB Simrad multibeam vendor format
0018_20020713_053843_raw.mb56.gz 22.48MB Simrad multibeam vendor format
0018_20020714_091849_raw.mb56.gz 3.76MB Simrad multibeam vendor format
0018_20020714_205758_raw.mb56.gz 28.50MB Simrad multibeam vendor format
0019_20020417_224627_raw.mb56.gz 4.18MB Simrad multibeam vendor format
0019_20020418_045546_raw.mb56.gz 20.76MB Simrad multibeam vendor format
0019_20020419_045532_raw.mb56.gz 2.07MB Simrad multibeam vendor format
0019_20020420_044308_raw.mb56.gz 28.26MB Simrad multibeam vendor format
0019_20020420_095152_raw.mb56.gz 29.42MB Simrad multibeam vendor format
0019_20020421_042107_raw.mb56.gz 32.03MB Simrad multibeam vendor format
0019_20020421_151451_raw.mb56.gz 48.24MB Simrad multibeam vendor format
0019_20020501_030001_raw.mb56.gz 32.69MB Simrad multibeam vendor format
0019_20020501_131241_raw.mb56.gz 18.89MB Simrad multibeam vendor format
0019_20020502_021350_raw.mb56.gz 2.39MB Simrad multibeam vendor format
0019_20020502_230747_raw.mb56.gz 5.55MB Simrad multibeam vendor format
0019_20020503_075613_raw.mb56.gz 15.68MB Simrad multibeam vendor format
0019_20020712_142525_raw.mb56.gz 5.67MB Simrad multibeam vendor format
0019_20020713_060246_raw.mb56.gz 2.58MB Simrad multibeam vendor format
0019_20020714_092242_raw.mb56.gz 15.18MB Simrad multibeam vendor format
0019_20020714_212629_raw.mb56.gz 11.59MB Simrad multibeam vendor format
0020_20020417_224933_raw.mb56.gz 210.7KB Simrad multibeam vendor format
0020_20020418_051212_raw.mb56.gz 2.35MB Simrad multibeam vendor format
0020_20020419_045711_raw.mb56.gz 12.75MB Simrad multibeam vendor format
0020_20020420_050458_raw.mb56.gz 4.53MB Simrad multibeam vendor format
0020_20020420_101509_raw.mb56.gz 3.58MB Simrad multibeam vendor format
0020_20020421_044442_raw.mb56.gz 3.79MB Simrad multibeam vendor format
0020_20020421_154753_raw.mb56.gz 6.34MB Simrad multibeam vendor format
0020_20020501_033054_raw.mb56.gz 32.08MB Simrad multibeam vendor format
0020_20020501_134353_raw.mb56.gz 4.01MB Simrad multibeam vendor format
0020_20020502_021636_raw.mb56.gz 39.53MB Simrad multibeam vendor format
0020_20020502_231249_raw.mb56.gz 6.31MB Simrad multibeam vendor format
0020_20020503_081004_raw.mb56.gz 2.78MB Simrad multibeam vendor format
0020_20020712_143843_raw.mb56.gz 8.17MB Simrad multibeam vendor format
0020_20020713_060610_raw.mb56.gz 31.93MB Simrad multibeam vendor format
0020_20020714_093827_raw.mb56.gz 3.01MB Simrad multibeam vendor format
0020_20020714_213808_raw.mb56.gz 30.86MB Simrad multibeam vendor format
0021_20020417_224942_raw.mb56.gz 20.26MB Simrad multibeam vendor format
0021_20020418_051417_raw.mb56.gz 21.12MB Simrad multibeam vendor format
0021_20020419_050706_raw.mb56.gz 7.81MB Simrad multibeam vendor format
0021_20020420_050828_raw.mb56.gz 28.05MB Simrad multibeam vendor format
0021_20020420_101801_raw.mb56.gz 29.65MB Simrad multibeam vendor format
0021_20020421_044751_raw.mb56.gz 31.14MB Simrad multibeam vendor format
0021_20020421_155216_raw.mb56.gz 5.07MB Simrad multibeam vendor format
0021_20020501_040108_raw.mb56.gz 31.08MB Simrad multibeam vendor format
0021_20020501_134749_raw.mb56.gz 8.52MB Simrad multibeam vendor format
0021_20020502_031119_raw.mb56.gz 1.98MB Simrad multibeam vendor format
0021_20020502_233322_raw.mb56.gz 14.15MB Simrad multibeam vendor format
0021_20020503_081236_raw.mb56.gz 16.28MB Simrad multibeam vendor format
0021_20020712_145249_raw.mb56.gz 3.44MB Simrad multibeam vendor format
0021_20020713_063859_raw.mb56.gz 30.09MB Simrad multibeam vendor format
0021_20020714_094133_raw.mb56.gz 15.20MB Simrad multibeam vendor format
0021_20020714_220900_raw.mb56.gz 15.18MB Simrad multibeam vendor format
0022_20020417_230618_raw.mb56.gz 2.85MB Simrad multibeam vendor format
0022_20020418_053029_raw.mb56.gz 4.20MB Simrad multibeam vendor format
0022_20020419_051419_raw.mb56.gz 1.90MB Simrad multibeam vendor format
0022_20020420_052959_raw.mb56.gz 4.03MB Simrad multibeam vendor format
0022_20020420_104115_raw.mb56.gz 3.55MB Simrad multibeam vendor format
0022_20020421_051055_raw.mb56.gz 3.92MB Simrad multibeam vendor format
0022_20020421_155612_raw.mb56.gz 33.94MB Simrad multibeam vendor format
0022_20020501_043050_raw.mb56.gz 45.52MB Simrad multibeam vendor format
0022_20020501_140019_raw.mb56.gz 11.54MB Simrad multibeam vendor format
0022_20020502_031402_raw.mb56.gz 30.49MB Simrad multibeam vendor format
0022_20020502_234542_raw.mb56.gz 3.35MB Simrad multibeam vendor format
0022_20020503_082658_raw.mb56.gz 2.43MB Simrad multibeam vendor format
0022_20020712_145703_raw.mb56.gz 1.31MB Simrad multibeam vendor format
0022_20020713_070848_raw.mb56.gz 19.17MB Simrad multibeam vendor format
0022_20020714_095714_raw.mb56.gz 2.46MB Simrad multibeam vendor format
0022_20020714_222417_raw.mb56.gz 3.54MB Simrad multibeam vendor format
0023_20020417_230859_raw.mb56.gz 19.73MB Simrad multibeam vendor format
0023_20020418_053344_raw.mb56.gz 7.89MB Simrad multibeam vendor format
0023_20020419_051604_raw.mb56.gz 19.80MB Simrad multibeam vendor format
0023_20020420_053259_raw.mb56.gz 28.35MB Simrad multibeam vendor format
0023_20020420_104354_raw.mb56.gz 30.42MB Simrad multibeam vendor format
0023_20020421_051343_raw.mb56.gz 32.09MB Simrad multibeam vendor format
0023_20020421_180646_raw.mb56.gz 208.4KB Simrad multibeam vendor format
0023_20020501_051456_raw.mb56.gz 30.00MB Simrad multibeam vendor format
0023_20020502_035536_raw.mb56.gz 2.44MB Simrad multibeam vendor format
0023_20020502_234855_raw.mb56.gz 19.60MB Simrad multibeam vendor format
0023_20020503_082915_raw.mb56.gz 15.63MB Simrad multibeam vendor format
0023_20020712_150038_raw.mb56.gz 3.80MB Simrad multibeam vendor format
0023_20020713_072738_raw.mb56.gz 3.54MB Simrad multibeam vendor format
0023_20020714_095949_raw.mb56.gz 14.98MB Simrad multibeam vendor format
0023_20020714_222748_raw.mb56.gz 29.40MB Simrad multibeam vendor format
0024_20020417_232501_raw.mb56.gz 4.03MB Simrad multibeam vendor format
0024_20020418_053946_raw.mb56.gz 21.30MB Simrad multibeam vendor format
0024_20020419_053224_raw.mb56.gz 3.31MB Simrad multibeam vendor format
0024_20020420_055442_raw.mb56.gz 0.73MB Simrad multibeam vendor format
0024_20020420_110809_raw.mb56.gz 2.91MB Simrad multibeam vendor format
0024_20020421_053721_raw.mb56.gz 3.67MB Simrad multibeam vendor format
0024_20020421_181601_raw.mb56.gz 28.77MB Simrad multibeam vendor format
0024_20020501_054406_raw.mb56.gz 31.45MB Simrad multibeam vendor format
0024_20020502_035832_raw.mb56.gz 39.45MB Simrad multibeam vendor format
0024_20020503_000600_raw.mb56.gz 4.21MB Simrad multibeam vendor format
0024_20020503_084310_raw.mb56.gz 2.77MB Simrad multibeam vendor format
0024_20020712_150445_raw.mb56.gz 11.81MB Simrad multibeam vendor format
0024_20020713_073111_raw.mb56.gz 28.79MB Simrad multibeam vendor format
0024_20020714_101527_raw.mb56.gz 2.73MB Simrad multibeam vendor format
0024_20020714_225700_raw.mb56.gz 8.72MB Simrad multibeam vendor format
0025_20020417_232802_raw.mb56.gz 128.5KB Simrad multibeam vendor format
0025_20020418_055642_raw.mb56.gz 1.97MB Simrad multibeam vendor format
0025_20020419_053500_raw.mb56.gz 19.40MB Simrad multibeam vendor format
0025_20020420_111031_raw.mb56.gz 35.03MB Simrad multibeam vendor format
0025_20020421_054027_raw.mb56.gz 31.47MB Simrad multibeam vendor format
0025_20020421_184032_raw.mb56.gz 16.22MB Simrad multibeam vendor format
0025_20020501_061447_raw.mb56.gz 32.97MB Simrad multibeam vendor format
0025_20020502_045316_raw.mb56.gz 2.34MB Simrad multibeam vendor format
0025_20020503_000942_raw.mb56.gz 13.82MB Simrad multibeam vendor format
0025_20020503_084543_raw.mb56.gz 16.07MB Simrad multibeam vendor format
0025_20020713_080008_raw.mb56.gz 29.57MB Simrad multibeam vendor format
0025_20020714_101810_raw.mb56.gz 14.65MB Simrad multibeam vendor format
0025_20020714_230546_raw.mb56.gz 3.13MB Simrad multibeam vendor format
0026_20020417_232808_raw.mb56.gz 437.9KB Simrad multibeam vendor format
0026_20020418_055830_raw.mb56.gz 29.76MB Simrad multibeam vendor format
0026_20020419_055112_raw.mb56.gz 2.78MB Simrad multibeam vendor format
0026_20020420_113802_raw.mb56.gz 3.54MB Simrad multibeam vendor format
0026_20020421_060338_raw.mb56.gz 4.06MB Simrad multibeam vendor format
0026_20020421_193830_raw.mb56.gz 64.24MB Simrad multibeam vendor format
0026_20020501_064654_raw.mb56.gz 14.82MB Simrad multibeam vendor format
0026_20020502_045637_raw.mb56.gz 30.50MB Simrad multibeam vendor format
0026_20020503_002145_raw.mb56.gz 4.48MB Simrad multibeam vendor format
0026_20020713_083000_raw.mb56.gz 18.54MB Simrad multibeam vendor format
0026_20020714_103316_raw.mb56.gz 3.13MB Simrad multibeam vendor format
0026_20020714_230857_raw.mb56.gz 29.00MB Simrad multibeam vendor format
0027_20020417_233206_raw.mb56.gz 1.05MB Simrad multibeam vendor format
0027_20020418_062123_raw.mb56.gz 20.72MB Simrad multibeam vendor format
0027_20020419_055348_raw.mb56.gz 19.55MB Simrad multibeam vendor format
0027_20020420_114037_raw.mb56.gz 29.45MB Simrad multibeam vendor format
0027_20020421_060630_raw.mb56.gz 31.92MB Simrad multibeam vendor format
0027_20020502_053721_raw.mb56.gz 2.88MB Simrad multibeam vendor format
0027_20020503_002600_raw.mb56.gz 19.56MB Simrad multibeam vendor format
0027_20020713_084941_raw.mb56.gz 2.62MB Simrad multibeam vendor format
0027_20020714_103636_raw.mb56.gz 14.94MB Simrad multibeam vendor format
0027_20020714_233800_raw.mb56.gz 12.67MB Simrad multibeam vendor format
0028_20020417_233252_raw.mb56.gz 20.49MB Simrad multibeam vendor format
0028_20020418_063737_raw.mb56.gz 3.12MB Simrad multibeam vendor format
0028_20020419_060956_raw.mb56.gz 3.74MB Simrad multibeam vendor format
0028_20020420_120402_raw.mb56.gz 3.26MB Simrad multibeam vendor format
0028_20020421_062958_raw.mb56.gz 3.67MB Simrad multibeam vendor format
0028_20020502_054052_raw.mb56.gz 43.13MB Simrad multibeam vendor format
0028_20020503_004302_raw.mb56.gz 4.38MB Simrad multibeam vendor format
0028_20020713_085301_raw.mb56.gz 29.47MB Simrad multibeam vendor format
0028_20020714_105221_raw.mb56.gz 2.81MB Simrad multibeam vendor format
0028_20020714_235038_raw.mb56.gz 3.53MB Simrad multibeam vendor format
0029_20020417_234932_raw.mb56.gz 3.03MB Simrad multibeam vendor format
0029_20020418_064025_raw.mb56.gz 21.19MB Simrad multibeam vendor format
0029_20020419_061249_raw.mb56.gz 19.06MB Simrad multibeam vendor format
0029_20020420_120638_raw.mb56.gz 10.66MB Simrad multibeam vendor format
0029_20020421_063301_raw.mb56.gz 31.38MB Simrad multibeam vendor format
0029_20020502_063904_raw.mb56.gz 1.68MB Simrad multibeam vendor format
0029_20020503_004654_raw.mb56.gz 14.10MB Simrad multibeam vendor format
0029_20020713_092300_raw.mb56.gz 30.42MB Simrad multibeam vendor format
0029_20020714_105513_raw.mb56.gz 14.44MB Simrad multibeam vendor format
0029_20020714_235409_raw.mb56.gz 6.59MB Simrad multibeam vendor format
0030_20020417_235220_raw.mb56.gz 19.44MB Simrad multibeam vendor format
0030_20020418_065646_raw.mb56.gz 3.91MB Simrad multibeam vendor format
0030_20020419_062848_raw.mb56.gz 3.05MB Simrad multibeam vendor format
0030_20020420_121508_raw.mb56.gz 2.90MB Simrad multibeam vendor format
0030_20020421_065612_raw.mb56.gz 3.82MB Simrad multibeam vendor format
0030_20020502_064136_raw.mb56.gz 30.31MB Simrad multibeam vendor format
0030_20020503_005911_raw.mb56.gz 4.72MB Simrad multibeam vendor format
0030_20020713_095300_raw.mb56.gz 20.71MB Simrad multibeam vendor format
0030_20020714_111009_raw.mb56.gz 2.41MB Simrad multibeam vendor format
0031_20020418_000805_raw.mb56.gz 6.18MB Simrad multibeam vendor format
0031_20020418_065947_raw.mb56.gz 20.72MB Simrad multibeam vendor format
0031_20020419_063142_raw.mb56.gz 19.68MB Simrad multibeam vendor format
0031_20020420_121733_raw.mb56.gz 18.97MB Simrad multibeam vendor format
0031_20020421_065855_raw.mb56.gz 31.60MB Simrad multibeam vendor format
0031_20020502_072206_raw.mb56.gz 9.82MB Simrad multibeam vendor format
0031_20020503_010342_raw.mb56.gz 18.86MB Simrad multibeam vendor format
0031_20020713_101327_raw.mb56.gz 6.60MB Simrad multibeam vendor format
0031_20020714_111249_raw.mb56.gz 15.18MB Simrad multibeam vendor format
0032_20020418_001245_raw.mb56.gz 93.2KB Simrad multibeam vendor format
0032_20020418_071555_raw.mb56.gz 3.92MB Simrad multibeam vendor format
0032_20020419_064757_raw.mb56.gz 3.61MB Simrad multibeam vendor format
0032_20020420_123214_raw.mb56.gz 3.46MB Simrad multibeam vendor format
0032_20020421_072222_raw.mb56.gz 3.24MB Simrad multibeam vendor format
0032_20020502_073335_raw.mb56.gz 44.79MB Simrad multibeam vendor format
0032_20020503_012014_raw.mb56.gz 4.58MB Simrad multibeam vendor format
0032_20020713_101959_raw.mb56.gz 29.76MB Simrad multibeam vendor format
0032_20020714_112836_raw.mb56.gz 2.31MB Simrad multibeam vendor format
0033_20020418_001249_raw.mb56.gz 20.44MB Simrad multibeam vendor format
0033_20020418_071923_raw.mb56.gz 4.38MB Simrad multibeam vendor format
0033_20020419_065046_raw.mb56.gz 5.58MB Simrad multibeam vendor format
0033_20020420_123445_raw.mb56.gz 28.48MB Simrad multibeam vendor format
0033_20020421_072511_raw.mb56.gz 31.38MB Simrad multibeam vendor format
0033_20020502_083329_raw.mb56.gz 3.13MB Simrad multibeam vendor format
0033_20020503_012417_raw.mb56.gz 14.47MB Simrad multibeam vendor format
0033_20020713_105001_raw.mb56.gz 30.80MB Simrad multibeam vendor format
0033_20020714_113059_raw.mb56.gz 14.22MB Simrad multibeam vendor format
0034_20020418_002926_raw.mb56.gz 2.90MB Simrad multibeam vendor format
0034_20020418_072313_raw.mb56.gz 21.59MB Simrad multibeam vendor format
0034_20020419_065515_raw.mb56.gz 19.27MB Simrad multibeam vendor format
0034_20020420_125711_raw.mb56.gz 3.71MB Simrad multibeam vendor format
0034_20020421_074827_raw.mb56.gz 3.81MB Simrad multibeam vendor format
0034_20020502_083745_raw.mb56.gz 29.98MB Simrad multibeam vendor format
0034_20020503_013703_raw.mb56.gz 5.32MB Simrad multibeam vendor format
0034_20020713_112102_raw.mb56.gz 13.46MB Simrad multibeam vendor format
0034_20020714_114549_raw.mb56.gz 2.69MB Simrad multibeam vendor format
0035_20020418_003205_raw.mb56.gz 19.76MB Simrad multibeam vendor format
0035_20020418_073948_raw.mb56.gz 3.18MB Simrad multibeam vendor format
0035_20020419_071123_raw.mb56.gz 2.86MB Simrad multibeam vendor format
0035_20020420_130004_raw.mb56.gz 29.63MB Simrad multibeam vendor format
0035_20020421_075110_raw.mb56.gz 31.19MB Simrad multibeam vendor format
0035_20020502_091805_raw.mb56.gz 5.44MB Simrad multibeam vendor format
0035_20020503_014203_raw.mb56.gz 17.56MB Simrad multibeam vendor format
0035_20020713_113518_raw.mb56.gz 2.58MB Simrad multibeam vendor format
0035_20020714_114850_raw.mb56.gz 15.11MB Simrad multibeam vendor format
0036_20020418_004755_raw.mb56.gz 2.80MB Simrad multibeam vendor format
0036_20020418_074219_raw.mb56.gz 20.69MB Simrad multibeam vendor format
0036_20020419_071405_raw.mb56.gz 19.49MB Simrad multibeam vendor format
0036_20020420_132310_raw.mb56.gz 2.95MB Simrad multibeam vendor format
0036_20020421_081432_raw.mb56.gz 3.00MB Simrad multibeam vendor format
0036_20020502_092406_raw.mb56.gz 52.41MB Simrad multibeam vendor format
0036_20020503_015729_raw.mb56.gz 4.74MB Simrad multibeam vendor format
0036_20020713_113829_raw.mb56.gz 21.56MB Simrad multibeam vendor format
0036_20020714_120443_raw.mb56.gz 2.33MB Simrad multibeam vendor format
0037_20020418_005125_raw.mb56.gz 24.80MB Simrad multibeam vendor format
0037_20020418_075821_raw.mb56.gz 4.07MB Simrad multibeam vendor format
0037_20020419_073023_raw.mb56.gz 3.56MB Simrad multibeam vendor format
0037_20020420_132522_raw.mb56.gz 28.82MB Simrad multibeam vendor format
0037_20020421_081707_raw.mb56.gz 30.99MB Simrad multibeam vendor format
0037_20020502_102522_raw.mb56.gz 1.67MB Simrad multibeam vendor format
0037_20020503_020144_raw.mb56.gz 15.29MB Simrad multibeam vendor format
0037_20020713_120029_raw.mb56.gz 30.15MB Simrad multibeam vendor format
0037_20020714_120701_raw.mb56.gz 14.10MB Simrad multibeam vendor format
0038_20020418_011109_raw.mb56.gz 2.87MB Simrad multibeam vendor format
0038_20020418_080142_raw.mb56.gz 21.89MB Simrad multibeam vendor format
0038_20020419_073309_raw.mb56.gz 18.84MB Simrad multibeam vendor format
0038_20020420_134819_raw.mb56.gz 3.67MB Simrad multibeam vendor format
0038_20020421_084018_raw.mb56.gz 3.83MB Simrad multibeam vendor format
0038_20020502_102748_raw.mb56.gz 36.27MB Simrad multibeam vendor format
0038_20020503_021511_raw.mb56.gz 3.89MB Simrad multibeam vendor format
0038_20020713_123005_raw.mb56.gz 27.14MB Simrad multibeam vendor format
0038_20020714_122146_raw.mb56.gz 2.38MB Simrad multibeam vendor format
0039_20020418_011346_raw.mb56.gz 20.27MB Simrad multibeam vendor format
0039_20020418_081826_raw.mb56.gz 3.70MB Simrad multibeam vendor format
0039_20020419_074903_raw.mb56.gz 2.95MB Simrad multibeam vendor format
0039_20020420_135110_raw.mb56.gz 9.15MB Simrad multibeam vendor format
0039_20020421_084302_raw.mb56.gz 30.98MB Simrad multibeam vendor format
0039_20020502_110722_raw.mb56.gz 9.93MB Simrad multibeam vendor format
0039_20020503_021849_raw.mb56.gz 16.99MB Simrad multibeam vendor format
0039_20020713_125633_raw.mb56.gz 3.04MB Simrad multibeam vendor format
0039_20020714_122431_raw.mb56.gz 14.77MB Simrad multibeam vendor format
0040_20020418_012946_raw.mb56.gz 4.14MB Simrad multibeam vendor format
0040_20020418_082119_raw.mb56.gz 6.57MB Simrad multibeam vendor format
0040_20020419_075149_raw.mb56.gz 19.35MB Simrad multibeam vendor format
0040_20020420_135818_raw.mb56.gz 10.12MB Simrad multibeam vendor format
0040_20020421_090622_raw.mb56.gz 3.53MB Simrad multibeam vendor format
0040_20020502_111909_raw.mb56.gz 48.34MB Simrad multibeam vendor format
0040_20020503_023350_raw.mb56.gz 4.81MB Simrad multibeam vendor format
0040_20020503_110004_raw.mb56.gz 3.39MB Simrad multibeam vendor format
0040_20020713_125931_raw.mb56.gz 29.36MB Simrad multibeam vendor format
0040_20020714_124023_raw.mb56.gz 2.89MB Simrad multibeam vendor format
0041_20020418_013254_raw.mb56.gz 44.7KB Simrad multibeam vendor format
0041_20020418_082624_raw.mb56.gz 24.48MB Simrad multibeam vendor format
0041_20020419_080800_raw.mb56.gz 3.90MB Simrad multibeam vendor format
0041_20020420_140623_raw.mb56.gz 12.16MB Simrad multibeam vendor format
0041_20020421_090920_raw.mb56.gz 30.55MB Simrad multibeam vendor format
0041_20020502_122339_raw.mb56.gz 2.05MB Simrad multibeam vendor format
0041_20020503_023812_raw.mb56.gz 15.15MB Simrad multibeam vendor format
0041_20020503_110320_raw.mb56.gz 2.23MB Simrad multibeam vendor format
0041_20020713_132901_raw.mb56.gz 29.77MB Simrad multibeam vendor format
0041_20020714_124319_raw.mb56.gz 14.04MB Simrad multibeam vendor format
0042_20020418_013256_raw.mb56.gz 20.45MB Simrad multibeam vendor format
0042_20020418_084533_raw.mb56.gz 21.58MB Simrad multibeam vendor format
0042_20020419_081104_raw.mb56.gz 19.48MB Simrad multibeam vendor format
0042_20020420_141551_raw.mb56.gz 4.10MB Simrad multibeam vendor format
0042_20020421_093229_raw.mb56.gz 3.70MB Simrad multibeam vendor format
0042_20020502_122648_raw.mb56.gz 28.26MB Simrad multibeam vendor format
0042_20020503_025147_raw.mb56.gz 3.30MB Simrad multibeam vendor format
0042_20020503_111206_raw.mb56.gz 15.52MB Simrad multibeam vendor format
0042_20020713_135901_raw.mb56.gz 12.80MB Simrad multibeam vendor format
0042_20020714_131541_raw.mb56.gz 10.4KB Simrad multibeam vendor format
0043_20020418_014914_raw.mb56.gz 3.22MB Simrad multibeam vendor format
0043_20020418_090210_raw.mb56.gz 4.37MB Simrad multibeam vendor format
0043_20020419_082736_raw.mb56.gz 2.51MB Simrad multibeam vendor format
0043_20020420_141853_raw.mb56.gz 29.80MB Simrad multibeam vendor format
0043_20020421_093507_raw.mb56.gz 30.43MB Simrad multibeam vendor format
0043_20020502_130552_raw.mb56.gz 2.21MB Simrad multibeam vendor format
0043_20020503_025455_raw.mb56.gz 16.67MB Simrad multibeam vendor format
0043_20020503_112620_raw.mb56.gz 3.06MB Simrad multibeam vendor format
0043_20020713_141229_raw.mb56.gz 2.62MB Simrad multibeam vendor format
0043_20020714_131709_raw.mb56.gz 13.49MB Simrad multibeam vendor format
0044_20020418_015206_raw.mb56.gz 20.51MB Simrad multibeam vendor format
0044_20020418_090534_raw.mb56.gz 20.84MB Simrad multibeam vendor format
0044_20020419_082956_raw.mb56.gz 19.43MB Simrad multibeam vendor format
0044_20020420_144228_raw.mb56.gz 3.29MB Simrad multibeam vendor format
0044_20020421_095828_raw.mb56.gz 3.35MB Simrad multibeam vendor format
0044_20020502_130850_raw.mb56.gz 45.86MB Simrad multibeam vendor format
0044_20020503_030927_raw.mb56.gz 3.83MB Simrad multibeam vendor format
0044_20020503_112916_raw.mb56.gz 15.43MB Simrad multibeam vendor format
0044_20020713_141532_raw.mb56.gz 29.22MB Simrad multibeam vendor format
0044_20020714_133130_raw.mb56.gz 2.81MB Simrad multibeam vendor format
0045_20020418_020809_raw.mb56.gz 4.27MB Simrad multibeam vendor format
0045_20020418_092136_raw.mb56.gz 3.80MB Simrad multibeam vendor format
0045_20020419_084611_raw.mb56.gz 3.82MB Simrad multibeam vendor format
0045_20020420_144513_raw.mb56.gz 29.61MB Simrad multibeam vendor format
0045_20020421_100117_raw.mb56.gz 30.03MB Simrad multibeam vendor format
0045_20020502_141339_raw.mb56.gz 2.00MB Simrad multibeam vendor format
0045_20020503_031251_raw.mb56.gz 15.75MB Simrad multibeam vendor format
0045_20020503_114343_raw.mb56.gz 3.74MB Simrad multibeam vendor format
0045_20020713_144501_raw.mb56.gz 30.64MB Simrad multibeam vendor format
0045_20020714_133420_raw.mb56.gz 13.75MB Simrad multibeam vendor format
0046_20020418_021123_raw.mb56.gz 17.57MB Simrad multibeam vendor format
0046_20020418_092441_raw.mb56.gz 3.82MB Simrad multibeam vendor format
0046_20020419_084909_raw.mb56.gz 18.61MB Simrad multibeam vendor format
0046_20020420_150836_raw.mb56.gz 3.70MB Simrad multibeam vendor format
0046_20020421_102422_raw.mb56.gz 4.24MB Simrad multibeam vendor format
0046_20020502_141647_raw.mb56.gz 26.43MB Simrad multibeam vendor format
0046_20020503_032650_raw.mb56.gz 3.12MB Simrad multibeam vendor format
0046_20020503_114714_raw.mb56.gz 15.01MB Simrad multibeam vendor format
0046_20020713_151501_raw.mb56.gz 16.63MB Simrad multibeam vendor format
0046_20020714_134907_raw.mb56.gz 2.37MB Simrad multibeam vendor format
0047_20020418_093314_raw.mb56.gz 3.70MB Simrad multibeam vendor format
0047_20020419_090459_raw.mb56.gz 3.40MB Simrad multibeam vendor format
0047_20020420_151119_raw.mb56.gz 29.60MB Simrad multibeam vendor format
0047_20020421_102723_raw.mb56.gz 18.16MB Simrad multibeam vendor format
0047_20020502_145459_raw.mb56.gz 2.70MB Simrad multibeam vendor format
0047_20020503_032945_raw.mb56.gz 15.95MB Simrad multibeam vendor format
0047_20020503_120107_raw.mb56.gz 13.9KB Simrad multibeam vendor format
0047_20020713_153111_raw.mb56.gz 3.27MB Simrad multibeam vendor format
0047_20020714_135159_raw.mb56.gz 14.56MB Simrad multibeam vendor format
0048_20020418_093612_raw.mb56.gz 17.87MB Simrad multibeam vendor format
0048_20020419_090814_raw.mb56.gz 19.67MB Simrad multibeam vendor format
0048_20020420_153450_raw.mb56.gz 3.30MB Simrad multibeam vendor format
0048_20020502_145837_raw.mb56.gz 47.38MB Simrad multibeam vendor format
0048_20020503_034350_raw.mb56.gz 2.52MB Simrad multibeam vendor format
0048_20020503_120107_raw.mb56.gz 2.99MB Simrad multibeam vendor format
0048_20020713_153425_raw.mb56.gz 30.44MB Simrad multibeam vendor format
0048_20020714_140748_raw.mb56.gz 2.64MB Simrad multibeam vendor format
0049_20020418_094949_raw.mb56.gz 5.86MB Simrad multibeam vendor format
0049_20020419_092430_raw.mb56.gz 3.97MB Simrad multibeam vendor format
0049_20020420_153741_raw.mb56.gz 29.66MB Simrad multibeam vendor format
0049_20020502_160718_raw.mb56.gz 1.26MB Simrad multibeam vendor format
0049_20020503_034605_raw.mb56.gz 15.84MB Simrad multibeam vendor format
0049_20020503_120421_raw.mb56.gz 7.43MB Simrad multibeam vendor format
0049_20020713_160455_raw.mb56.gz 25.00MB Simrad multibeam vendor format
0049_20020714_141029_raw.mb56.gz 13.68MB Simrad multibeam vendor format
0050_20020418_095425_raw.mb56.gz 18.73MB Simrad multibeam vendor format
0050_20020419_092738_raw.mb56.gz 18.73MB Simrad multibeam vendor format
0050_20020420_160102_raw.mb56.gz 5.99MB Simrad multibeam vendor format
0050_20020502_160921_raw.mb56.gz 25.87MB Simrad multibeam vendor format
0050_20020503_040023_raw.mb56.gz 2.88MB Simrad multibeam vendor format
0050_20020503_121130_raw.mb56.gz 15.37MB Simrad multibeam vendor format
0050_20020713_163002_raw.mb56.gz 13.29MB Simrad multibeam vendor format
0050_20020714_142518_raw.mb56.gz 2.64MB Simrad multibeam vendor format
0051_20020418_100841_raw.mb56.gz 3.16MB Simrad multibeam vendor format
0051_20020419_094333_raw.mb56.gz 2.96MB Simrad multibeam vendor format
0051_20020420_160522_raw.mb56.gz 30.18MB Simrad multibeam vendor format
0051_20020502_164645_raw.mb56.gz 3.53MB Simrad multibeam vendor format
0051_20020503_040308_raw.mb56.gz 15.60MB Simrad multibeam vendor format
0051_20020503_122556_raw.mb56.gz 3.08MB Simrad multibeam vendor format
0051_20020713_170239_raw.mb56.gz 1.30MB Simrad multibeam vendor format
0051_20020714_142836_raw.mb56.gz 14.26MB Simrad multibeam vendor format
0052_20020418_101120_raw.mb56.gz 21.89MB Simrad multibeam vendor format
0052_20020419_094615_raw.mb56.gz 20.40MB Simrad multibeam vendor format
0052_20020420_162912_raw.mb56.gz 3.48MB Simrad multibeam vendor format
0052_20020502_165134_raw.mb56.gz 47.58MB Simrad multibeam vendor format
0052_20020503_041656_raw.mb56.gz 2.70MB Simrad multibeam vendor format
0052_20020503_122855_raw.mb56.gz 14.55MB Simrad multibeam vendor format
0052_20020713_170408_raw.mb56.gz 25.70MB Simrad multibeam vendor format
0052_20020714_144418_raw.mb56.gz 2.28MB Simrad multibeam vendor format
0053_20020418_102755_raw.mb56.gz 4.65MB Simrad multibeam vendor format
0053_20020419_100301_raw.mb56.gz 3.11MB Simrad multibeam vendor format
0053_20020420_163211_raw.mb56.gz 29.31MB Simrad multibeam vendor format
0053_20020502_180027_raw.mb56.gz 5.86MB Simrad multibeam vendor format
0053_20020503_041921_raw.mb56.gz 16.03MB Simrad multibeam vendor format
0053_20020503_124235_raw.mb56.gz 2.93MB Simrad multibeam vendor format
0053_20020713_173014_raw.mb56.gz 24.89MB Simrad multibeam vendor format
0053_20020714_144635_raw.mb56.gz 13.41MB Simrad multibeam vendor format
0054_20020418_103132_raw.mb56.gz 21.01MB Simrad multibeam vendor format
0054_20020419_100530_raw.mb56.gz 18.77MB Simrad multibeam vendor format
0054_20020420_165519_raw.mb56.gz 3.88MB Simrad multibeam vendor format
0054_20020502_180958_raw.mb56.gz 9.48MB Simrad multibeam vendor format
0054_20020503_043347_raw.mb56.gz 3.12MB Simrad multibeam vendor format
0054_20020503_124522_raw.mb56.gz 15.40MB Simrad multibeam vendor format
0054_20020713_175445_raw.mb56.gz 24.72MB Simrad multibeam vendor format
0054_20020714_150123_raw.mb56.gz 2.71MB Simrad multibeam vendor format
0055_20020418_104736_raw.mb56.gz 0.56MB Simrad multibeam vendor format
0055_20020419_102124_raw.mb56.gz 2.91MB Simrad multibeam vendor format
0055_20020420_165812_raw.mb56.gz 29.49MB Simrad multibeam vendor format
0055_20020502_182447_raw.mb56.gz 5.88MB Simrad multibeam vendor format
0055_20020503_043637_raw.mb56.gz 15.46MB Simrad multibeam vendor format
0055_20020503_125950_raw.mb56.gz 2.82MB Simrad multibeam vendor format
0055_20020713_181856_raw.mb56.gz 3.11MB Simrad multibeam vendor format
0055_20020714_150500_raw.mb56.gz 14.13MB Simrad multibeam vendor format
0056_20020418_105229_raw.mb56.gz 1.68MB Simrad multibeam vendor format
0056_20020419_102405_raw.mb56.gz 20.22MB Simrad multibeam vendor format
0056_20020420_172136_raw.mb56.gz 2.98MB Simrad multibeam vendor format
0056_20020502_183501_raw.mb56.gz 15.87MB Simrad multibeam vendor format
0056_20020503_045014_raw.mb56.gz 2.98MB Simrad multibeam vendor format
0056_20020503_130227_raw.mb56.gz 15.10MB Simrad multibeam vendor format
0056_20020713_182158_raw.mb56.gz 28.59MB Simrad multibeam vendor format
0056_20020714_152042_raw.mb56.gz 2.53MB Simrad multibeam vendor format
0057_20020418_105352_raw.mb56.gz 21.42MB Simrad multibeam vendor format
0057_20020419_104035_raw.mb56.gz 3.41MB Simrad multibeam vendor format
0057_20020420_172418_raw.mb56.gz 29.22MB Simrad multibeam vendor format
0057_20020502_185453_raw.mb56.gz 3.52MB Simrad multibeam vendor format
0057_20020503_045254_raw.mb56.gz 12.32MB Simrad multibeam vendor format
0057_20020503_131634_raw.mb56.gz 7.39MB Simrad multibeam vendor format
0057_20020713_185050_raw.mb56.gz 19.67MB Simrad multibeam vendor format
0057_20020714_152312_raw.mb56.gz 13.12MB Simrad multibeam vendor format
0058_20020418_111006_raw.mb56.gz 0.73MB Simrad multibeam vendor format
0058_20020419_104318_raw.mb56.gz 19.14MB Simrad multibeam vendor format
0058_20020420_174720_raw.mb56.gz 4.06MB Simrad multibeam vendor format
0058_20020503_132344_raw.mb56.gz 11.07MB Simrad multibeam vendor format
0058_20020713_191049_raw.mb56.gz 17.82MB Simrad multibeam vendor format
0058_20020714_153756_raw.mb56.gz 5.36MB Simrad multibeam vendor format
0059_20020418_111040_raw.mb56.gz 3.19MB Simrad multibeam vendor format
0059_20020419_105919_raw.mb56.gz 16.79MB Simrad multibeam vendor format
0059_20020420_175021_raw.mb56.gz 29.47MB Simrad multibeam vendor format
0059_20020503_133356_raw.mb56.gz 7.46MB Simrad multibeam vendor format
0059_20020713_192946_raw.mb56.gz 2.75MB Simrad multibeam vendor format
0059_20020714_154509_raw.mb56.gz 13.40MB Simrad multibeam vendor format
0060_20020418_111311_raw.mb56.gz 21.23MB Simrad multibeam vendor format
0060_20020419_111353_raw.mb56.gz 15.83MB Simrad multibeam vendor format
0060_20020420_181342_raw.mb56.gz 3.93MB Simrad multibeam vendor format
0060_20020503_134040_raw.mb56.gz 8.58MB Simrad multibeam vendor format
0060_20020713_193259_raw.mb56.gz 16.20MB Simrad multibeam vendor format
0060_20020714_155918_raw.mb56.gz 56.9KB Simrad multibeam vendor format
0061_20020418_112916_raw.mb56.gz 343.8KB Simrad multibeam vendor format
0061_20020419_112619_raw.mb56.gz 64.9KB Simrad multibeam vendor format
0061_20020420_181700_raw.mb56.gz 29.01MB Simrad multibeam vendor format
0061_20020503_134840_raw.mb56.gz 3.06MB Simrad multibeam vendor format
0061_20020713_195009_raw.mb56.gz 29.32MB Simrad multibeam vendor format
0062_20020418_112933_raw.mb56.gz 3.02MB Simrad multibeam vendor format
0062_20020419_115643_raw.mb56.gz 4.16MB Simrad multibeam vendor format
0062_20020420_183956_raw.mb56.gz 4.62MB Simrad multibeam vendor format
0062_20020503_135125_raw.mb56.gz 1.55MB Simrad multibeam vendor format
0062_20020713_202001_raw.mb56.gz 25.90MB Simrad multibeam vendor format
0063_20020418_113206_raw.mb56.gz 21.47MB Simrad multibeam vendor format
0063_20020419_120013_raw.mb56.gz 13.39MB Simrad multibeam vendor format
0063_20020420_184321_raw.mb56.gz 30.13MB Simrad multibeam vendor format
0063_20020503_135251_raw.mb56.gz 16.64MB Simrad multibeam vendor format
0063_20020713_204625_raw.mb56.gz 3.23MB Simrad multibeam vendor format
0064_20020418_114832_raw.mb56.gz 362.0KB Simrad multibeam vendor format
0064_20020419_121032_raw.mb56.gz 3.91MB Simrad multibeam vendor format
0064_20020420_190658_raw.mb56.gz 3.33MB Simrad multibeam vendor format
0064_20020713_204939_raw.mb56.gz 28.71MB Simrad multibeam vendor format
0065_20020418_114849_raw.mb56.gz 3.85MB Simrad multibeam vendor format
0065_20020419_121321_raw.mb56.gz 21.25MB Simrad multibeam vendor format
0065_20020420_190947_raw.mb56.gz 28.91MB Simrad multibeam vendor format
0065_20020713_211901_raw.mb56.gz 29.16MB Simrad multibeam vendor format
0066_20020418_115150_raw.mb56.gz 21.39MB Simrad multibeam vendor format
0066_20020419_123103_raw.mb56.gz 3.20MB Simrad multibeam vendor format
0066_20020420_193232_raw.mb56.gz 3.84MB Simrad multibeam vendor format
0066_20020713_214901_raw.mb56.gz 5.73MB Simrad multibeam vendor format
0067_20020418_120805_raw.mb56.gz 3.74MB Simrad multibeam vendor format
0067_20020419_123404_raw.mb56.gz 22.22MB Simrad multibeam vendor format
0067_20020420_193527_raw.mb56.gz 30.27MB Simrad multibeam vendor format
0067_20020713_215523_raw.mb56.gz 2.96MB Simrad multibeam vendor format
0068_20020418_121112_raw.mb56.gz 21.09MB Simrad multibeam vendor format
0068_20020419_125215_raw.mb56.gz 4.11MB Simrad multibeam vendor format
0068_20020420_195920_raw.mb56.gz 3.82MB Simrad multibeam vendor format
0068_20020713_215845_raw.mb56.gz 27.85MB Simrad multibeam vendor format
0069_20020418_122735_raw.mb56.gz 3.68MB Simrad multibeam vendor format
0069_20020419_125510_raw.mb56.gz 21.47MB Simrad multibeam vendor format
0069_20020420_200228_raw.mb56.gz 28.75MB Simrad multibeam vendor format
0069_20020713_222804_raw.mb56.gz 28.90MB Simrad multibeam vendor format
0070_20020418_123030_raw.mb56.gz 20.77MB Simrad multibeam vendor format
0070_20020419_131305_raw.mb56.gz 3.28MB Simrad multibeam vendor format
0070_20020420_202505_raw.mb56.gz 3.54MB Simrad multibeam vendor format
0070_20020713_225801_raw.mb56.gz 11.61MB Simrad multibeam vendor format
0071_20020418_124628_raw.mb56.gz 3.42MB Simrad multibeam vendor format
0071_20020419_131609_raw.mb56.gz 22.61MB Simrad multibeam vendor format
0071_20020420_202743_raw.mb56.gz 30.66MB Simrad multibeam vendor format
0071_20020713_231006_raw.mb56.gz 4.69MB Simrad multibeam vendor format
0072_20020418_124919_raw.mb56.gz 21.05MB Simrad multibeam vendor format
0072_20020419_133433_raw.mb56.gz 4.16MB Simrad multibeam vendor format
0072_20020420_205140_raw.mb56.gz 1.58MB Simrad multibeam vendor format
0072_20020713_231449_raw.mb56.gz 28.07MB Simrad multibeam vendor format
0073_20020418_130543_raw.mb56.gz 3.69MB Simrad multibeam vendor format
0073_20020419_133733_raw.mb56.gz 18.43MB Simrad multibeam vendor format
0073_20020420_211903_raw.mb56.gz 3.83MB Simrad multibeam vendor format
0073_20020713_234408_raw.mb56.gz 32.60MB Simrad multibeam vendor format
0074_20020418_130836_raw.mb56.gz 44.4KB Simrad multibeam vendor format
0074_20020419_135227_raw.mb56.gz 1.38MB Simrad multibeam vendor format
0074_20020420_212210_raw.mb56.gz 29.82MB Simrad multibeam vendor format
0074_20020714_001842_raw.mb56.gz 3.48MB Simrad multibeam vendor format
0075_20020418_130838_raw.mb56.gz 511.5KB Simrad multibeam vendor format
0075_20020419_135344_raw.mb56.gz 3.66MB Simrad multibeam vendor format
0075_20020420_214529_raw.mb56.gz 3.76MB Simrad multibeam vendor format
0075_20020714_002239_raw.mb56.gz 27.80MB Simrad multibeam vendor format
0076_20020418_130901_raw.mb56.gz 20.18MB Simrad multibeam vendor format
0076_20020419_135707_raw.mb56.gz 3.20MB Simrad multibeam vendor format
0076_20020420_214814_raw.mb56.gz 31.52MB Simrad multibeam vendor format
0076_20020714_005203_raw.mb56.gz 28.89MB Simrad multibeam vendor format
0077_20020418_132444_raw.mb56.gz 3.37MB Simrad multibeam vendor format
0077_20020419_140004_raw.mb56.gz 6.29MB Simrad multibeam vendor format
0077_20020420_221232_raw.mb56.gz 3.17MB Simrad multibeam vendor format
0077_20020714_012201_raw.mb56.gz 8.95MB Simrad multibeam vendor format
0078_20020418_132740_raw.mb56.gz 20.95MB Simrad multibeam vendor format
0078_20020419_140552_raw.mb56.gz 2.91MB Simrad multibeam vendor format
0078_20020420_221516_raw.mb56.gz 33.23MB Simrad multibeam vendor format
0078_20020714_013122_raw.mb56.gz 3.11MB Simrad multibeam vendor format
0079_20020418_134408_raw.mb56.gz 3.75MB Simrad multibeam vendor format
0079_20020419_140822_raw.mb56.gz 16.57MB Simrad multibeam vendor format
0079_20020420_224052_raw.mb56.gz 31.85MB Simrad multibeam vendor format
0079_20020714_013432_raw.mb56.gz 28.31MB Simrad multibeam vendor format
0080_20020418_134705_raw.mb56.gz 20.11MB Simrad multibeam vendor format
0080_20020419_142111_raw.mb56.gz 4.12MB Simrad multibeam vendor format
0080_20020420_230512_raw.mb56.gz 3.08MB Simrad multibeam vendor format
0080_20020714_020403_raw.mb56.gz 29.90MB Simrad multibeam vendor format
0081_20020418_140301_raw.mb56.gz 3.16MB Simrad multibeam vendor format
0081_20020419_142417_raw.mb56.gz 11.89MB Simrad multibeam vendor format
0081_20020420_230756_raw.mb56.gz 29.87MB Simrad multibeam vendor format
0081_20020714_023518_raw.mb56.gz 2.60MB Simrad multibeam vendor format
0082_20020418_140546_raw.mb56.gz 20.89MB Simrad multibeam vendor format
0082_20020419_143326_raw.mb56.gz 1.68MB Simrad multibeam vendor format
0082_20020420_233047_raw.mb56.gz 3.80MB Simrad multibeam vendor format
0082_20020714_023812_raw.mb56.gz 29.58MB Simrad multibeam vendor format
0083_20020418_142216_raw.mb56.gz 3.49MB Simrad multibeam vendor format
0083_20020419_143449_raw.mb56.gz 10.17MB Simrad multibeam vendor format
0083_20020420_233333_raw.mb56.gz 32.26MB Simrad multibeam vendor format
0083_20020714_030853_raw.mb56.gz 28.00MB Simrad multibeam vendor format
0084_20020418_142504_raw.mb56.gz 19.97MB Simrad multibeam vendor format
0084_20020419_144349_raw.mb56.gz 2.57MB Simrad multibeam vendor format
0084_20020420_235747_raw.mb56.gz 0.60MB Simrad multibeam vendor format
0084_20020714_033801_raw.mb56.gz 5.87MB Simrad multibeam vendor format
0085_20020418_144059_raw.mb56.gz 3.15MB Simrad multibeam vendor format
0085_20020419_144613_raw.mb56.gz 9.61MB Simrad multibeam vendor format
0085_20020420_235913_raw.mb56.gz 2.79MB Simrad multibeam vendor format
0085_20020714_034408_raw.mb56.gz 4.65MB Simrad multibeam vendor format
0086_20020418_144347_raw.mb56.gz 20.39MB Simrad multibeam vendor format
0086_20020419_145444_raw.mb56.gz 1.15MB Simrad multibeam vendor format
0086_20020421_000204_raw.mb56.gz 0.80MB Simrad multibeam vendor format
0086_20020714_034900_raw.mb56.gz 29.77MB Simrad multibeam vendor format
0087_20020418_150017_raw.mb56.gz 4.11MB Simrad multibeam vendor format
0087_20020419_145538_raw.mb56.gz 9.36MB Simrad multibeam vendor format
0087_20020421_000250_raw.mb56.gz 23.03MB Simrad multibeam vendor format
0087_20020714_042006_raw.mb56.gz 26.24MB Simrad multibeam vendor format
0088_20020418_164420_raw.mb56.gz 5.01MB Simrad multibeam vendor format
0088_20020419_150356_raw.mb56.gz 3.06MB Simrad multibeam vendor format
0088_20020421_002451_raw.mb56.gz 272.0KB Simrad multibeam vendor format
0088_20020714_044730_raw.mb56.gz 2.34MB Simrad multibeam vendor format
0089_20020419_150649_raw.mb56.gz 23.20MB Simrad multibeam vendor format
0089_20020421_002505_raw.mb56.gz 1.20MB Simrad multibeam vendor format
0089_20020714_045009_raw.mb56.gz 28.93MB Simrad multibeam vendor format
0090_20020419_152542_raw.mb56.gz 5.76MB Simrad multibeam vendor format
0090_20020421_002620_raw.mb56.gz 1.72MB Simrad multibeam vendor format
0090_20020714_052033_raw.mb56.gz 31.64MB Simrad multibeam vendor format
0091_20020419_153002_raw.mb56.gz 12.63MB Simrad multibeam vendor format
0091_20020421_002750_raw.mb56.gz 25.61MB Simrad multibeam vendor format
0091_20020714_055347_raw.mb56.gz 3.17MB Simrad multibeam vendor format
0092_20020419_153951_raw.mb56.gz 6.50MB Simrad multibeam vendor format
0092_20020714_055704_raw.mb56.gz 23.98MB Simrad multibeam vendor format
0093_20020419_154508_raw.mb56.gz 45.0KB Simrad multibeam vendor format
0093_20020714_062207_raw.mb56.gz 29.51MB Simrad multibeam vendor format
0094_20020419_154511_raw.mb56.gz 214.8KB Simrad multibeam vendor format
0094_20020714_065247_raw.mb56.gz 2.69MB Simrad multibeam vendor format
0095_20020419_154521_raw.mb56.gz 12.43MB Simrad multibeam vendor format
0095_20020714_065536_raw.mb56.gz 27.69MB Simrad multibeam vendor format
0096_20020419_155609_raw.mb56.gz 3.15MB Simrad multibeam vendor format
0096_20020714_072428_raw.mb56.gz 30.07MB Simrad multibeam vendor format
0097_20020419_155906_raw.mb56.gz 22.51MB Simrad multibeam vendor format
0097_20020714_075606_raw.mb56.gz 4.96MB Simrad multibeam vendor format
0098_20020419_161722_raw.mb56.gz 4.35MB Simrad multibeam vendor format
0098_20020714_080111_raw.mb56.gz 28.84MB Simrad multibeam vendor format
0099_20020419_162044_raw.mb56.gz 22.28MB Simrad multibeam vendor format
0099_20020714_083101_raw.mb56.gz 24.06MB Simrad multibeam vendor format
0100_20020419_163916_raw.mb56.gz 3.52MB Simrad multibeam vendor format
0100_20020714_085557_raw.mb56.gz 3.52MB Simrad multibeam vendor format
0101_20020419_164243_raw.mb56.gz 23.11MB Simrad multibeam vendor format
0101_20020714_085933_raw.mb56.gz 19.57MB Simrad multibeam vendor format
0102_20020419_170134_raw.mb56.gz 1.73MB Simrad multibeam vendor format
0102_20020714_092009_raw.mb56.gz 19.31MB Simrad multibeam vendor format
0103_20020419_170359_raw.mb56.gz 2.11MB Simrad multibeam vendor format
0103_20020714_094036_raw.mb56.gz 20.60MB Simrad multibeam vendor format
0104_20020419_170538_raw.mb56.gz 22.51MB Simrad multibeam vendor format
0104_20020714_100216_raw.mb56.gz 3.46MB Simrad multibeam vendor format
0105_20020419_172425_raw.mb56.gz 2.90MB Simrad multibeam vendor format
0105_20020714_100546_raw.mb56.gz 28.16MB Simrad multibeam vendor format
0106_20020419_172713_raw.mb56.gz 23.39MB Simrad multibeam vendor format
0106_20020714_103501_raw.mb56.gz 20.93MB Simrad multibeam vendor format
0107_20020714_105648_raw.mb56.gz 3.43MB Simrad multibeam vendor format
0108_20020714_110022_raw.mb56.gz 18.59MB Simrad multibeam vendor format
0109_20020714_112001_raw.mb56.gz 19.00MB Simrad multibeam vendor format
0110_20020714_114000_raw.mb56.gz 19.25MB Simrad multibeam vendor format
0111_20020714_120027_raw.mb56.gz 3.28MB Simrad multibeam vendor format
0112_20020714_120351_raw.mb56.gz 25.58MB Simrad multibeam vendor format
0113_20020714_123021_raw.mb56.gz 21.44MB Simrad multibeam vendor format
0114_20020714_125243_raw.mb56.gz 3.39MB Simrad multibeam vendor format
0115_20020714_125628_raw.mb56.gz 28.06MB Simrad multibeam vendor format
0116_20020714_132602_raw.mb56.gz 28.76MB Simrad multibeam vendor format

Metadata Files: 1

Files File Size Description
USF2002Fla_Multibeam.xml NGDC created ISO metadata